EHI
0 0 0 0 0 1 2 3 3 3 3 3 3 3 4 4 4 3 3 4 4 2 2 3 3 3 1 0 0 0 0 0 0 0 0 0 0 0 1 1 1 0 0
0 0 0 0 0 1 2 3 3 3 3 3 3 3 3 4 3 3 3 4 5 4 3 3 3 3 2 1 0 0 0 0 0 0 0 0 0 0 0 0 0 0 0
0 0 0 0 0 0 1 2 2 3 3 3 3 3 3 3 3 3 3 4 5 5 4 3 3 3 3 1 0 0 0 1 0 0 0 0 0 0 0 0 0 0 0
0 0 0 0 0 0 0 0 1 2 2 2 2 2 2 2 2 2 2 3 4 3 3 3 3 3 3 2 1 1 0 0 0 0 0 0 0 0 0 0 0 0 0
0 0 0 0 0 0 0 0 0 1 1 1 2 1 1 1 1 1 1 1 1 1 1 2 3 3 3 3 3 2 1 0 0 0 0 0 0 0 0 0 0 0 0
0 0 0 0 0 0 0 0 0 0 1 2 3 2 1 0 0 0 0 0 0 0 0 1 1 2 2 2 2 2 1 0 0 0 0 0 0 0 0 0 0 0 0
0 0 0 0 0 0 0 1 0 0 1 2 4 4 2 0 0 0 0 0 0 0 0 0 0 1 1 1 1 1 1 0 0 0 0 0 0 0 0 0 0 0 0
0 0 0 0 0 0 0 0 0 0 1 2 3 3 1 0 0 0 0 0 0 0 0 0 0 0 0 0 0 0 0 0 0 0 0 0 0 0 0 0 0 0 0
0 0 0 0 0 0 0 0 0 0 0 1 2 1 0 0 0 0 0 0 0 0 0 0 0 0 0 0 0 0 0 0 0 0 0 1 1 1 0 0 0 0 0
0 0 0 0 0 0 0 0 0 0 0 1 1 1 0 0 0 0 0 0 0 0 0 0 0 0 0 0 0 0 0 0 0 0 0 1 1 1 0 0 0 0 0
0 0 0 0 0 0 0 0 0 0 0 0 0 0 0 0 0 0 0 0 0 0 0 0 0 0 0 0 0 0 0 0 0 0 0 0 0 0 0 0 0 0 0
0 0 0 0 0 0 0 0 0 0 0 0 0 0 0 0 0 0 0 0 0 0 0 0 0 0 0 0 0 0 0 0 0 0 0 0 0 0 0 0 0 0 0
0 0 0 0 0 0 0 0 0 0 0 0 0 0 0 0 0 0 0 0 0 0 0 0 0 0 0 0 0 0 0 0 0 0 0 0 0 0 0 0 0 0 0
0 0 0 0 0 0 0 0 0 0 0 0 0 0 0 0 0 0 0 0 0 0 0 0 0 0 0 0 0 0 0 0 0 0 1 1 1 1 0 0 0 0 0
0 0 0 0 0 0 0 0 0 0 0 0 0 0 0 0 0 0 0 0 0 0 0 0 0 0 0 0 0 0 0 0 0 0 1 2 2 1 1 0 0 0 0
0 0 0 0 0 0 0 0 0 0 0 0 0 0 0 0 0 0 0 0 0 0 0 0 0 0 0 0 0 0 0 0 0 0 1 1 1 1 0 0 0 0 0
0 0 0 0 0 0 0 0 0 0 0 0 0 0 0 0 0 0 0 0 0 0 0 0 0 0 0 0 0 0 0 0 0 0 0 0 0 0 0 0 0 0 0
0 0 0 0 0 0 0 0 0 0 0 0 0 0 0 0 0 0 0 0 0 0 0 0 0 0 0 0 0 0 0 0 0 0 0 0 0 0 0 0 0 0 0
0 0 0 0 0 0 0 0 0 0 0 0 0 0 0 0 0 0 0 0 0 0 0 0 0 0 0 0 0 0 0 0 0 0 0 0 0 0 0 0 0 0 0
0 0 0 0 0 0 0 0 0 0 0 0 0 0 0 0 0 0 0 0 0 0 0 0 0 0 0 0 0 0 0 0 0 0 0 0 0 0 0 0 0 0 0
0 0 0 0 0 0 0 0 0 0 0 0 0 0 0 0 0 0 0 0 0 0 0 0 0 0 0 0 0 0 0 0 0 0 0 0 0 0 0 0 0 0 0
0 0 0 0 0 0 0 0 0 0 0 0 0 0 0 0 0 0 0 0 0 0 0 0 0 0 0 0 0 0 0 0 0 0 0 0 0 0 0 0 0 0 0
0 0 0 0 0 0 0 0 0 0 0 0 0 0 0 0 0 0 0 0 0 0 0 0 0 0 0 0 0 0 0 0 0 0 0 0 0 0 0 0 0 0 0
0 0 0 0 0 0 0 0 0 0 0 0 0 0 0 0 0 0 0 0 0 0 0 0 0 0 0 0 0 0 0 0 0 0 0 0 0 0 0 0 0 0 0
0 0 0 0 0 0 0 0 0 0 0 0 0 0 0 0 0 0 0 0 0 0 0 0 0 0 0 0 0 0 0 0 0 0 0 0 0 0 0 0 0 0 0
0 0 0 0 0 0 0 0 0 0 0 0 0 0 0 0 0 0 0 0 0 0 0 0 0 0 0 0 0 0 0 0 0 0 0 0 0 0 0 0 0 0 0
Wind_Speed
1 1 7 9 10 11 11 11 11 11 11 11 10 10 10 9 9 8 8 8 7 7 7 7 6 6 6 6 6 5 5 4 4 4 4 4 4 4 5 5 4 2 4
2 2 8 9 10 10 11 11 10 10 10 10 10 10 10 9 9 8 8 7 7 7 7 6 6 6 6 6 5 5 5 4 4 4 4 4 4 4 4 4 4 2 4
4 3 6 9 10 10 10 11 10 10 10 10 10 10 9 9 8 8 8 7 7 7 6 6 6 6 6 6 5 5 5 5 5 5 4 3 2 4 4 4 3 4 4
5 4 5 9 10 10 10 10 10 10 10 10 10 9 8 8 8 7 7 7 7 7 6 5 6 6 6 5 5 5 5 5 5 5 3 2 2 3 4 4 3 4 4
4 4 4 8 9 9 9 9 9 9 9 9 8 8 7 7 7 7 7 7 6 6 5 5 5 5 6 5 5 5 5 5 5 5 3 2 2 3 4 4 4 4 4
4 3 4 8 8 8 8 8 8 8 8 7 7 7 7 6 6 6 6 6 6 5 5 5 5 5 5 5 5 5 5 5 5 3 2 2 1 2 3 4 3 3 4
4 3 3 6 7 7 7 7 7 7 6 6 6 6 6 6 6 5 5 5 5 5 5 5 4 5 5 5 4 4 5 5 4 2 2 1 1 2 3 3 3 4 4
4 2 2 5 6 6 6 6 5 5 5 5 5 5 5 5 5 6 6 5 5 5 5 4 4 4 4 4 4 5 5 5 4 3 2 1 1 2 3 3 4 4 4
3 3 3 3 3 4 5 5 5 5 5 5 6 6 5 5 6 6 7 6 5 5 5 4 3 4 4 4 5 5 6 6 4 2 2 1 1 3 4 4 4 4 5
3 3 2 2 3 3 4 4 5 6 7 7 7 7 7 7 7 7 7 7 6 6 6 5 5 5 5 5 5 6 6 5 3 3 2 1 2 4 5 4 4 5 5
2 1 1 2 2 3 3 4 6 7 8 8 7 9 8 5 5 5 7 8 8 7 7 7 7 7 7 6 6 6 5 3 3 2 2 3 3 4 4 4 4 5 6
1 0 1 1 1 2 3 4 3 4 4 4 4 5 4 4 4 5 8 10 10 9 9 9 9 8 6 4 5 6 3 3 3 2 2 4 4 5 5 5 6 6 7
2 1 1 1 1 2 2 2 2 2 3 4 5 4 3 3 3 4 3 5 6 7 5 5 6 4 4 3 3 3 3 3 2 2 3 5 6 6 6 7 7 7 8
2 1 1 2 2 2 2 2 2 2 2 3 3 4 3 2 3 3 3 3 3 2 3 3 3 4 4 4 4 4 4 3 3 2 4 8 8 8 8 8 8 8 8
2 2 1 2 3 2 2 2 2 2 2 2 3 3 3 3 3 3 3 3 3 3 3 3 3 4 5 4 5 5 5 5 5 4 4 10 11 10 10 9 9 9 9
3 3 2 3 3 3 2 2 2 2 2 3 3 3 4 3 2 3 3 3 3 3 3 3 4 4 4 4 6 5 5 5 5 5 5 7 11 11 10 10 10 10 10
4 3 4 4 3 4 3 3 2 2 3 3 3 3 4 3 3 3 3 3 3 3 4 4 4 4 4 5 6 6 5 5 5 6 6 5 6 10 12 12 11 11 11
4 4 3 4 5 4 4 3 3 3 3 3 3 3 4 4 4 3 4 3 3 3 3 4 4 4 5 5 5 5 5 5 6 6 6 6 5 5 8 13 13 12 12
5 5 4 5 5 5 4 4 4 3 4 3 3 3 4 4 4 4 4 3 4 4 4 4 4 3 4 5 5 5 5 5 5 6 7 7 6 6 5 9 13 14 13
5 5 5 5 5 5 4 3 3 4 3 3 3 4 4 4 4 4 4 4 4 4 4 4 5 4 4 4 6 7 6 5 5 6 6 6 6 7 7 7 6 8 14
5 5 5 5 4 4 3 2 2 2 2 3 3 4 4 4 4 4 4 4 4 4 4 4 3 5 4 3 4 4 5 6 7 6 5 6 7 7 7 8 6 6 6
5 5 5 5 4 3 2 2 2 2 1 2 2 4 5 5 4 4 4 4 4 4 5 4 3 3 3 4 2 3 3 5 5 6 6 6 7 6 7 8 8 8 6
5 6 6 5 4 4 4 3 3 3 3 3 4 3 4 4 5 4 5 4 4 4 4 4 3 4 3 3 3 3 3 2 1 4 5 5 6 6 6 6 8 8 8
6 5 5 5 4 4 4 4 4 3 2 1 1 2 3 4 4 4 4 5 4 4 4 4 3 3 3 2 2 3 2 3 3 1 3 4 6 7 7 7 7 8 8
6 5 5 5 4 4 4 5 5 3 2 1 2 3 4 4 4 4 4 4 4 4 4 4 4 4 3 2 2 2 3 3 3 3 2 3 4 4 5 6 6 6 7
5 5 5 6 4 4 4 4 5 5 4 3 2 2 2 2 3 4 4 4 4 4 4 4 4 5 4 4 3 2 2 2 2 3 3 1 2 3 4 5 6 6 6
Wind_Direction
19 85 106 101 100 97 93 89 86 85 85 83 82 81 80 79 79 77 75 73 69 66 65 66 66 65 65 68 68 65 67 69 68 67 73 75 74 76 74 70 66 66 84
135 114 111 105 103 99 94 90 87 86 84 81 79 77 76 75 74 72 70 68 67 64 61 61 63 61 57 58 61 60 63 67 68 67 64 58 62 67 76 75 66 72 79
113 103 111 109 104 100 96 92 89 85 82 79 77 74 72 72 70 68 64 64 64 60 54 56 56 56 53 50 50 50 56 60 63 64 58 42 34 62 74 72 69 69 68
112 104 112 110 105 101 96 92 89 85 81 77 73 70 67 66 65 63 61 61 61 59 52 50 51 50 46 44 44 49 55 55 55 56 49 32 17 59 70 71 73 71 67
102 96 111 110 106 100 94 91 88 85 81 75 71 68 65 61 58 57 57 59 58 57 51 43 45 45 42 39 44 54 58 60 59 51 42 27 10 49 61 62 70 70 68
101 98 115 117 109 101 96 92 87 82 76 71 65 61 58 57 54 50 49 48 47 43 41 38 41 40 38 39 48 58 62 64 60 51 38 16 7 51 59 60 61 59 58
111 103 118 118 110 104 98 89 83 77 69 62 55 51 45 43 41 40 35 31 31 31 34 34 34 34 41 42 47 61 65 65 68 52 32 5 358 54 64 62 57 53 47
114 94 90 113 112 102 92 82 75 68 57 49 43 37 31 30 29 26 22 23 22 23 26 29 27 31 44 49 51 60 63 64 61 45 30 10 18 64 65 58 53 49 40
88 74 49 40 60 71 71 64 56 48 40 36 34 31 27 20 16 16 12 11 12 19 27 33 36 44 56 57 59 65 62 64 58 30 28 20 45 70 72 63 53 38 30
74 68 58 38 37 37 28 32 38 35 34 33 31 28 27 22 17 17 8 9 21 29 33 40 49 60 63 66 71 68 58 55 44 29 16 14 62 81 77 68 50 35 29
93 62 64 44 35 34 17 27 31 33 32 31 28 32 32 23 16 14 12 24 29 36 40 46 57 60 59 57 66 65 58 45 38 24 8 24 65 80 78 72 54 39 32
161 178 107 76 39 29 27 33 23 29 25 25 25 25 24 24 18 27 19 28 31 36 37 42 47 51 54 43 49 56 47 40 36 18 8 26 61 79 79 67 57 46 41
178 180 132 134 62 46 39 36 29 24 24 22 24 26 29 30 23 23 19 17 20 28 27 29 37 37 48 50 48 48 46 47 35 18 9 30 57 70 70 65 59 54 46
145 167 134 105 85 67 64 51 44 38 29 25 20 25 36 34 27 19 21 13 18 15 27 34 40 43 52 54 57 55 49 48 41 29 23 41 50 59 62 61 58 54 49
145 161 134 110 103 92 74 52 55 45 40 34 27 24 42 47 33 27 22 24 21 22 35 42 46 52 53 52 54 56 52 49 46 41 28 41 46 51 56 58 55 52 47
158 159 124 111 111 103 90 73 55 48 47 44 35 29 44 52 47 42 33 29 24 22 34 50 55 60 56 58 54 51 52 48 45 45 38 36 43 47 50 53 51 50 46
155 141 129 123 109 102 91 78 65 47 49 45 31 31 41 47 51 50 44 36 22 26 44 56 55 58 61 58 51 47 51 52 52 48 43 38 35 41 44 47 48 48 43
146 138 138 127 114 104 89 76 64 51 50 41 31 32 38 43 50 54 48 33 21 38 50 61 55 64 58 58 54 43 44 47 49 49 46 39 34 33 35 42 43 42 39
151 136 124 117 115 105 91 76 64 53 45 36 34 33 33 41 45 56 50 32 32 48 47 62 56 68 71 67 66 52 43 45 42 46 45 41 36 34 31 33 37 36 34
133 125 120 111 109 105 88 73 55 45 34 32 33 29 33 40 46 53 52 37 40 55 49 54 69 62 65 68 75 62 46 43 44 40 39 38 38 39 36 33 27 27 31
125 127 131 129 128 119 99 89 75 45 18 22 25 28 34 43 48 54 52 42 43 58 58 62 77 70 51 38 74 60 42 43 47 37 34 36 33 32 35 34 30 24 20
145 144 143 144 143 136 122 119 113 104 57 34 13 26 28 38 43 59 58 52 44 58 55 51 67 80 46 28 79 82 48 26 23 27 30 36 29 27 32 33 30 28 23
159 164 161 157 147 138 127 106 82 56 37 26 18 14 11 30 46 55 58 58 49 57 62 53 60 87 87 39 46 109 117 121 28 11 26 32 29 30 22 23 29 25 23
176 165 155 153 146 144 139 133 128 118 106 48 14 15 20 31 43 49 56 57 55 54 57 52 59 75 100 85 47 45 84 132 126 63 7 16 29 32 25 23 21 20 20
167 160 154 146 145 147 143 139 128 117 118 86 53 48 36 29 34 41 54 59 57 56 58 58 58 63 73 92 88 76 67 61 70 111 68 0 15 18 21 17 17 16 15
158 154 149 148 151 146 141 141 141 138 135 115 83 62 36 27 26 31 50 57 61 61 59 61 64 65 66 77 76 73 92 96 92 103 109 51 20 351 3 15 19 10 11